Weather History for Silver City, NM

Change the Weather History Date:

Tuesday, September 11, 2012

  Actual Average (KDMN) Record (KDMN)
Temperature  
Mean Temperature 71 °F 74 °F  
Max Temperature 80 °F 89 °F 98 °F (1959)
Min Temperature 62 °F 59 °F 46 °F (1986)
Cooling Degree Days 6    
Growing Degree Days 21 (Base 50)    
Moisture  
Dew Point 50 °F    
Average Humidity 51    
Maximum Humidity 77    
Minimum Humidity 30    
Precipitation  
Precipitation 0.00 in 0.05 in 1.05 in (1958)
Month to date precipitation 0.49  
Year to date precipitation 8.08  
Sea Level Pressure  
Sea Level Pressure 30.17 in    
Wind  
Wind Speed 8 mph (WNW)    
Max Wind Speed 25 mph    
Max Gust Speed 32 mph    
Visibility 10 miles    
Events Rain , Thunderstorm    
T = Trace of Precipitation, MM = Missing Value Source: NWS Daily Summary

Daily Weather History Graph

Daily Weather History Graph

Search for Another Location

Airport:

Trip Planner

Search our weather history database for the weather conditions in past years. The results will help you decide how hot, cold, wet, or windy it might be!

Date:

Astronomy

Sep. 11, 2012 Rise Set
Actual Time 6:54 AM MDT 7:23 PM MDT
Civil Twilight 6:29 AM MDT 7:48 PM MDT
Nautical Twilight 6:00 AM MDT 8:17 PM MDT
Astronomical Twilight 5:30 AM MDT 8:46 PM MDT
Moon 2:26 AM MDT (9/11) 4:25 PM MDT (9/11)
Length of Visible Light 13h 18m
Length of Day
12h 29m
Waning Crescent, 21% of the Moon is Illuminated
Sep 11
Waning Crescent
Sep 15
New
Sep 22
First Quarter
Sep 29
Full
Oct 8
Last Quarter

Hourly Weather History & Observations

Time (MDT) Temp. Dew Point Humidity Pressure Visibility Wind Dir Wind Speed Gust Speed Precip Events Conditions
12:15 AM 66.2 °F 48.2 °F 52% 30.21 in 10.0 mi NW 8.1 mph - N/A   Clear
12:55 AM 64.4 °F 48.2 °F 56% 30.20 in 10.0 mi NNW 6.9 mph - N/A   Partly Cloudy
1:15 AM 64.4 °F 48.2 °F 56% 30.19 in 10.0 mi NNW 5.8 mph - N/A   Partly Cloudy
1:35 AM 64.4 °F 48.2 °F 56% 30.18 in 10.0 mi NW 6.9 mph - N/A   Clear
1:55 AM 66.2 °F 48.2 °F 52% 30.18 in 10.0 mi NW 8.1 mph - N/A   Clear
2:15 AM 66.2 °F 50.0 °F 56% 30.17 in 10.0 mi NW 8.1 mph - N/A   Clear
2:35 AM 66.2 °F 48.2 °F 52% 30.17 in 10.0 mi NNW 4.6 mph - N/A   Clear
2:55 AM 64.4 °F 48.2 °F 56% 30.17 in 10.0 mi NW 3.5 mph - N/A   Partly Cloudy
3:15 AM 64.4 °F 48.2 °F 56% 30.17 in 10.0 mi Calm Calm - N/A   Scattered Clouds
3:35 AM 64.4 °F 48.2 °F 56% 30.17 in 10.0 mi Calm Calm - N/A   Partly Cloudy
3:55 AM 64.4 °F 48.2 °F 56% 30.17 in 10.0 mi Calm Calm - N/A   Mostly Cloudy
4:15 AM 64.4 °F 48.2 °F 56% 30.17 in 10.0 mi West 3.5 mph - N/A   Mostly Cloudy
4:55 AM 66.2 °F 50.0 °F 56% 30.17 in 10.0 mi WNW 5.8 mph - N/A   Partly Cloudy
5:15 AM 64.4 °F 50.0 °F 59% 30.17 in 10.0 mi North 6.9 mph - N/A   Mostly Cloudy
5:35 AM 64.4 °F 50.0 °F 59% 30.17 in 10.0 mi NNE 3.5 mph - N/A   Scattered Clouds
5:55 AM 64.4 °F 50.0 °F 59% 30.17 in 10.0 mi North 4.6 mph - N/A   Partly Cloudy
6:15 AM 62.6 °F 50.0 °F 63% 30.17 in 10.0 mi North 6.9 mph - N/A   Partly Cloudy
6:35 AM 64.4 °F 50.0 °F 59% 30.17 in 10.0 mi North 3.5 mph - N/A   Mostly Cloudy
6:55 AM 64.4 °F 50.0 °F 59% 30.18 in 10.0 mi North 4.6 mph - N/A   Scattered Clouds
7:15 AM 64.4 °F 50.0 °F 59% 30.19 in 10.0 mi NNW 9.2 mph - N/A   Clear
7:35 AM 64.4 °F 51.8 °F 64% 30.19 in 10.0 mi NW 9.2 mph - N/A   Clear
7:55 AM 66.2 °F 51.8 °F 60% 30.19 in 10.0 mi NW 9.2 mph - N/A   Scattered Clouds
8:15 AM 66.2 °F 53.6 °F 64% 30.20 in 5.0 mi NNW 9.2 mph - N/A   Haze
8:35 AM 66.2 °F 53.6 °F 64% 30.20 in 10.0 mi NW 11.5 mph - N/A   Scattered Clouds
8:55 AM 69.8 °F 53.6 °F 56% 30.20 in 10.0 mi NW 11.5 mph - N/A   Partly Cloudy
9:15 AM 69.8 °F 53.6 °F 56% 30.20 in 10.0 mi NNW 9.2 mph 16.1 mph N/A   Scattered Clouds
9:35 AM 71.6 °F 51.8 °F 50% 30.21 in 10.0 mi WNW 10.4 mph - N/A   Mostly Cloudy
9:55 AM 71.6 °F 51.8 °F 50% 30.22 in 10.0 mi WNW 9.2 mph - N/A   Mostly Cloudy
10:15 AM 73.4 °F 51.8 °F 47% 30.22 in 10.0 mi NW 5.8 mph - N/A   Mostly Cloudy
10:35 AM 73.4 °F 51.8 °F 47% 30.22 in 10.0 mi West 6.9 mph - N/A   Mostly Cloudy
10:55 AM 75.2 °F 50.0 °F 41% 30.21 in 10.0 mi WSW 8.1 mph - N/A   Scattered Clouds
11:15 AM 75.2 °F 50.0 °F 41% 30.21 in 10.0 mi West 5.8 mph - N/A   Partly Cloudy
11:35 AM 77.0 °F 50.0 °F 39% 30.21 in 10.0 mi SSW 6.9 mph - N/A   Scattered Clouds
11:55 AM 75.2 °F 48.2 °F 38% 30.20 in 10.0 mi West 6.9 mph - N/A   Clear
12:15 PM 77.0 °F 48.2 °F 36% 30.19 in 10.0 mi WSW 3.5 mph - N/A   Clear
12:35 PM 78.8 °F 48.2 °F 34% 30.19 in 10.0 mi SW 8.1 mph - N/A   Clear
12:55 PM 80.6 °F 46.4 °F 30% 30.18 in 10.0 mi SSW 10.4 mph - N/A   Scattered Clouds
1:15 PM 78.8 °F 46.4 °F 32% 30.18 in 10.0 mi South 6.9 mph - N/A   Mostly Cloudy
1:35 PM 80.6 °F 46.4 °F 30% 30.17 in 10.0 mi SSW 9.2 mph 16.1 mph N/A   Mostly Cloudy
1:55 PM 80.6 °F 46.4 °F 30% 30.15 in 10.0 mi SSW 15.0 mph - N/A   Mostly Cloudy
2:15 PM 80.6 °F 46.4 °F 30% 30.15 in 10.0 mi SW 8.1 mph - N/A   Scattered Clouds
2:35 PM 80.6 °F 46.4 °F 30% 30.14 in 10.0 mi SW 11.5 mph 18.4 mph N/A Thunderstorm Scattered Clouds
2:55 PM 80.6 °F 48.2 °F 32% 30.13 in 10.0 mi SW 13.8 mph 20.7 mph N/A   Scattered Clouds
3:15 PM 78.8 °F 48.2 °F 34% 30.13 in 10.0 mi SW 12.7 mph 19.6 mph N/A   Partly Cloudy
3:35 PM 77.0 °F 48.2 °F 36% 30.13 in 10.0 mi WSW 8.1 mph - N/A   Partly Cloudy
3:55 PM 78.8 °F 46.4 °F 32% 30.12 in 10.0 mi SW 11.5 mph 17.3 mph N/A   Partly Cloudy
4:15 PM 77.0 °F 48.2 °F 36% 30.12 in 10.0 mi SW 12.7 mph 18.4 mph N/A   Partly Cloudy
4:35 PM 77.0 °F 48.2 °F 36% 30.12 in 10.0 mi WSW 9.2 mph - N/A   Scattered Clouds
4:55 PM 77.0 °F 48.2 °F 36% 30.11 in 10.0 mi WSW 11.5 mph 17.3 mph N/A   Scattered Clouds
5:15 PM 78.8 °F 48.2 °F 34% 30.11 in 10.0 mi WSW 10.4 mph 19.6 mph N/A   Partly Cloudy
5:35 PM 80.6 °F 46.4 °F 30% 30.11 in 10.0 mi West 9.2 mph 17.3 mph N/A   Partly Cloudy
5:55 PM 77.0 °F 48.2 °F 36% 30.12 in 10.0 mi West 13.8 mph - N/A   Partly Cloudy
6:15 PM 77.0 °F 50.0 °F 39% 30.12 in 10.0 mi WSW 12.7 mph 17.3 mph N/A   Scattered Clouds
6:55 PM 75.2 °F 48.2 °F 38% 30.13 in 10.0 mi West 10.4 mph 19.6 mph N/A   Clear
7:15 PM 73.4 °F 51.8 °F 47% 30.14 in 10.0 mi WNW 25.3 mph 31.1 mph N/A   Partly Cloudy
7:35 PM 68.0 °F 50.0 °F 52% 30.15 in 10.0 mi WNW 24.2 mph 32.2 mph N/A   Clear
7:55 PM 66.2 °F 51.8 °F 60% 30.17 in 10.0 mi WNW 25.3 mph 31.1 mph N/A   Clear
8:15 PM 66.2 °F 51.8 °F 60% 30.19 in 10.0 mi WNW 18.4 mph - N/A   Scattered Clouds
8:35 PM 66.2 °F 51.8 °F 60% 30.19 in 10.0 mi NW 13.8 mph - N/A   Mostly Cloudy
8:55 PM 66.2 °F 50.0 °F 56% 30.19 in 10.0 mi NNW 13.8 mph - N/A   Mostly Cloudy
9:15 PM 64.4 °F 53.6 °F 68% 30.21 in 10.0 mi NW 15.0 mph 24.2 mph N/A   Scattered Clouds
9:35 PM 62.6 °F 55.4 °F 77% 30.21 in 10.0 mi NNW 9.2 mph - N/A Rain Light Rain
9:55 PM 62.6 °F 55.4 °F 77% 30.20 in 9.0 mi NNW 12.7 mph - N/A Rain Light Rain
10:15 PM 62.6 °F 55.4 °F 77% 30.20 in 10.0 mi NNW 15.0 mph - N/A   Clear
10:55 PM 62.6 °F 53.6 °F 72% 30.20 in 10.0 mi NW 9.2 mph - N/A   Clear
11:15 PM 62.6 °F 55.4 °F 77% 30.20 in 10.0 mi NW 9.2 mph - N/A   Clear
11:35 PM 62.6 °F 55.4 °F 77% 30.20 in 10.0 mi NW 9.2 mph - N/A   Scattered Clouds
11:55 PM 62.6 °F 55.4 °F 77% 30.20 in 10.0 mi NW 9.2 mph - N/A   Mostly Cloudy